Weather in Novopokrovka

Russia / Primorsky Krai     45°51′02″N   134°30′07″E
temp.,
°C
wind,
m/s
gust,
m/s
humid.,
%
clouds,
%
prec.,
mm/h
press.,
hPa
HPBL,
m
12 may, wed
wed1201:00+6s228735 0.0 101940
04:00+6sse239225 0.0 101851
07:00+7s258319 0.0 1019152
10:00+14sse3551100 0.0 1015900
13:00+16sw5745100 0.0 10151546
16:00+16s3852100 0.0 10121557
19:00+11w3884100 0.9 1012388
22:00+9s51285100 2.0 10141156
13 may, thu
thu1301:00+8s411855 0.0 1013657
04:00+7s310835 0.0 1012342
07:00+8s311785 0.0 1011490
10:00+15ssw59565 0.0 1010940
13:00+19wsw612410 0.0 10092201
16:00+20wsw6113210 0.0 10083255
19:00+18wsw49466 0.0 10081046
22:00+12ssw311795 0.0 1010220
14 may, fri
fri1401:00+10ssw36885 0.0 1010106
04:00+8ssw37922 0.0 1011159
07:00+10s24855 0.0 1012132
10:00+18sw35490 0.0 1012760
13:00+23w46300 0.0 10102537
16:00+24w4525100 0.0 10092811
19:00+19w1149100 0.0 100911
22:00+15sse2253100 0.0 101027
15 may, sat
sat1501:00+14s2456100 0.0 100972
04:00+14s3857100 0.0 1007175
07:00+13s51475100 0.6 1005944
10:00+12s51492100 3.9 1004803
13:00+14wsw41191100 1.9 1003759
16:00+10wnw3995100 6.3 1006634
19:00+10sw4792100 1.6 1007485
22:00+9ssw41191100 1.7 1008398
16 may, sun
sun1601:00+8ssw41293100 0.0 1007420
04:00+8ssw31195100 0.0 1007398
07:00+9sw31191100 0.0 1007500
10:00+15w475692 0.0 10061134
13:00+17wnw4647100 0.0 10051595
16:00+19w46426 0.0 10042059
19:00+18w2455100 0.0 1003136
22:00+12ssw33750 0.0 100344